This is the latest recevied weather packets stored in our database for station/object KO4ZGL-13. If no packets are shown the sender has not sent any weather packets the latest 10 day(s).
| Time | Temp. | Humidity | Pressure | Rain* | Wind** | Luminosity | Snow |
|---|---|---|---|---|---|---|---|
| 1778088189 | 28.33° C | 60% | 1016.9 hPa | 0 mm | - | 527 W/m² | - |
| 1778087887 | 27.78° C | 60% | 1017.1 hPa | 0 mm | - | 625 W/m² | - |
| 1778087584 | 27.78° C | 62% | 1017 hPa | 0 mm | - | 425 W/m² | - |
| 1778087282 | 27.78° C | 66% | 1017.2 hPa | 0 mm | - | 340 W/m² | - |
| 1778086977 | 27.22° C | 63% | 1017 hPa | 0 mm | - | 307 W/m² | - |
| 1778086676 | 27.78° C | 62% | 1017 hPa | 0 mm | - | 414 W/m² | - |
| 1778086373 | 27.22° C | 62% | 1016.9 hPa | 0 mm | - | 469 W/m² | - |
| 1778086070 | 27.78° C | 62% | 1017.3 hPa | 0 mm | - | 403 W/m² | - |
| 1778085767 | 27.78° C | 61% | 1017.2 hPa | 0 mm | - | 517 W/m² | - |
| 1778085464 | 28.33° C | 61% | 1017.4 hPa | 0 mm | - | 452 W/m² | - |
| 1778085159 | 28.33° C | 62% | 1017.3 hPa | 0 mm | - | 508 W/m² | - |
| 1778084855 | 27.78° C | 63% | 1017.3 hPa | 0 mm | - | 698 W/m² | - |
| 1778084552 | 27.78° C | 63% | 1017.3 hPa | 0 mm | - | 516 W/m² | - |
| 1778084244 | 27.78° C | 62% | 1017.3 hPa | 0 mm | - | 466 W/m² | - |
| 1778083941 | 27.22° C | 64% | 1017.1 hPa | 0 mm | - | 739 W/m² | - |
| 1778083639 | 27.22° C | 64% | 1017 hPa | 0 mm | - | 479 W/m² | - |
| 1778083335 | 26.11° C | 67% | 1017.3 hPa | 0 mm | - | 639 W/m² | - |
| 1778083034 | 26.67° C | 65% | 1017.5 hPa | 0 mm | - | 373 W/m² | - |
| 1778082730 | 26.67° C | 67% | 1017.3 hPa | 0 mm | - | 474 W/m² | - |
| 1778081592 | 25.56° C | 69% | 1017.5 hPa | 0 mm | - | 213 W/m² | - |
| 1778081289 | 26.11° C | 69% | 1017.5 hPa | 0 mm | - | 247 W/m² | - |
| 1778080986 | 26.67° C | 68% | 1017.8 hPa | 0 mm | - | 359 W/m² | - |
| 1778080685 | 26.11° C | 67% | 1017.4 hPa | 0 mm | - | 410 W/m² | - |
| 1778080381 | 26.11° C | 68% | 1017.5 hPa | 0 mm | - | 487 W/m² | - |
| 1778080078 | 26.11° C | 68% | 1017.5 hPa | 0 mm | - | 512 W/m² | - |
* Rain latest hour (hover to see other rain measurements)
** Current wind speed in m/s (hover to see current wind gust speed)